• Processing (Info)

  • MPEC 2023-R117 : 2023 RP3

    The following Minor Planet Electronic Circular may be linked-to from your own Web pages, but must not otherwise be redistributed electronically.

    A form allowing access to any MPEC is at the bottom of this page.


    Read MPEC 2023-R116 Read MPEC 2023-R118


    M.P.E.C. 2023-R117                           Issued 2023 September 10, 23:51 UT
    
         The Minor Planet Electronic Circulars contain information on unusual
             minor planets, routine data on comets and natural satellites,
             and occasional editorial announcements.  They are published
        on behalf of Division F of the International Astronomical Union by the
              Minor Planet Center, Smithsonian Astrophysical Observatory,
                              Cambridge, MA 02138, U.S.A.
    			  
                 Prepared using the Tamkin Foundation Computer Network
    
                                  MPC@CFA.HARVARD.EDU
                URL https://www.minorplanetcenter.net/    ISSN 1523-6714
    
                                    2023 RP3                                 
    
    
    Observations:
         K23R03P  C2023 09 09.29641722 29 59.076+36 28 38.73         20.21GVER117F52
         K23R03P  C2023 09 09.30787522 30 12.426+36 29 41.34         20.50GVER117F52
         K23R03P  C2023 09 09.31907522 30 25.536+36 30 42.50               VER117F52
         K23R03P  C2023 09 09.33109622 30 39.433+36 31 46.91               VER117F52
         K23R03P*1C2023 09 10.34985822 51 12.593+37 48 05.98         20.43GVER117G96
         K23R03P 1C2023 09 10.35511922 51 18.551+37 48 25.67         20.43GVER117G96
         K23R03P 1C2023 09 10.37382022 51 39.866+37 49 34.86         19.97GVER117G96
         K23R03P 1C2023 09 10.44090522 52 57.043+37 53 33.61         20.26GVER117G96
         K23R03P 1C2023 09 10.44114722 52 57.342+37 53 33.58         20.50GVER117G96
         K23R03P 1C2023 09 10.44138822 52 57.644+37 53 35.12         20.42GVER117G96
         K23R03P 1C2023 09 10.79832 23 00 20.89 +38 14 37.4          20.1 VXER117033
         K23R03P 1C2023 09 10.79913 23 00 21.82 +38 14 40.5          20.5 VXER117033
         K23R03P 1C2023 09 10.79993 23 00 22.76 +38 14 43.3          20.0 VXER117033
         K23R03P 1C2023 09 10.80085 23 00 23.81 +38 14 47.1          20.5 VXER117033
         K23R03P IC2023 09 10.81934423 00 45.70 +38 16 12.0          20.7 GVER117L01
         K23R03P KC2023 09 10.82131723 00 47.91 +38 16 19.6          20.3 GVER117L01
         K23R03P KC2023 09 10.82329123 00 50.21 +38 16 27.1          20.4 GVER117L01
         K23R03P KC2023 09 10.82544023 00 52.67 +38 16 35.1          20.4 GVER117L01
         K23R03P KB2023 09 10.85645 23 01 30.521+38 18 30.67         20.6 VZER117J57
         K23R03P KB2023 09 10.86998 23 01 46.020+38 19 22.04         21.0 VZER117J57
         K23R03P KC2023 09 10.90613423 02 24.97 +38 21 24.0          20.4 GVER117L06
         K23R03P KC2023 09 10.90726923 02 26.25 +38 21 28.0          20.2 GVER117L06
         K23R03P KC2023 09 10.91105323 02 30.43 +38 21 41.4          20.4 GVER117L06
         K23R03P KC2023 09 10.92098 23 02 41.44 +38 22 20.4                VER117104
         K23R03P KC2023 09 10.93371 23 02 55.71 +38 23 04.4          20.5 GVER117104
    
    Observer details:
    033 Karl Schwarzschild Observatory, Tautenburg.  Observers S. Melnikov, C.
        Hoegner, F. Ludwig, M. Hartmann, B. Stecklum.  Measurer B. Stecklum.
        1.34-m f/3 Schmidt + CCD.
    104 San Marcello Pistoiese.  Observers P. Bacci, M. Maestripieri.  Measurer P.
        Bacci.  0.60-m f/4.0 reflector + CCD.
    F52 Pan-STARRS 2, Haleakala.  Observers J. Bulger, K. Chambers, T. Dukes, T.
        Lowe, P. Minguez, A. Schultz, I. Smith.  Measurers S. Chastel, J.
        Fairlamb, M. Huber, Y. Ramanjooloo, R. Wainscoat, R. Weryk.  1.8-m
        Ritchey-Chretien + CCD.
    G96 Mt. Lemmon Survey.  Observer D. C. Fuls.  Measurers E. J. Christensen, D.
        Fay, J. B. Fazekas, D. C. Fuls, A. R. Gibbs, A. D. Grauer, H. Groeller, J.
        K. Hogan, R. A. Kowalski, S. M. Larson, G. J. Leonard, D. Rankin, R. L.
        Seaman, A. Serrano, F. C. Shelly, K. W. Wierzchos.  1.5-m reflector + 10K
        CCD.
    J57 Centro Astronomico Alto Turia, Valencia.  Observer A. Fornas.  Measurers
        A. Fornas, G. Fornas, E. Arce, V. Mas.  0.43-m f/6.8 Reflector 0.4m + CMO.
    L01 Visnjan Observatory, Tican.  Observers K. Korlevic, I. Lyon.  Measurer K.
        Korlevic.  1.0-m f/2.9 reflector + CCD.
    L06 Sormano 2 Observatory, Bellagio Via Lattea.  Observer G. Ventre.  Measurer
        P. Sicoli.  0.36m Schmidt Cassegrain + CCD.
    
    Orbital elements:
    2023 RP3                                                 Earth MOID = 0.0488 AU
    Epoch 2023 Sept. 13.0 TT = JDT 2460200.5                Veres                   
    M   1.81092              (2000.0)            P               Q                  
    n   0.23988924     Peri.   63.12899     +0.95029146     +0.30929049             
    a   2.5652451      Node   278.83682     -0.29699602     +0.86584233             
    e   0.5925201      Incl.    2.07943     -0.09348528     +0.39326384             
    P   4.11           H   25.21          G   0.15           U   9                  
    Residuals in seconds of arc
    230909 F52  0.0   0.1-    230910 G96  0.2+  0.6+    230910 J57  0.3-  0.1+
    230909 F52  0.3-  0.3-    230910 033  0.3+  0.1-    230910 J57  0.6+  0.7+
    230909 F52  0.6+  0.1+    230910 033  0.2+  0.1-    230910 L06  0.9+  0.2+
    230909 F52  0.1-  0.2-    230910 033  0.3+  0.3-    230910 L06  1.0+  0.2+
    230910 G96  0.4+  0.3+    230910 033  0.1+  0.0     230910 L06  0.1-  0.3+
    230910 G96  0.1-  0.2+    230910 L01  0.1+  0.1+    230910 104  0.1-  0.9-
    230910 G96  0.3-  0.1+    230910 L01  0.5-  0.3+    230910 104  0.4-  0.6-
    230910 G96  0.3-  0.8+    230910 L01  0.1-  0.3+
    230910 G96  0.0   0.1-    230910 L01  0.1-  0.3+
    
    Ephemeris:
    2023 RP3                 a,e,i = 2.57, 0.59, 2                   q = 1.0453
    Date    TT    R. A. (2000) Decl.     Delta      r    Elong.  Phase     V
    2023 08 11    17 59 07.9 -12 34 21   0.1186  1.0952   131.1    44.2    22.5
    ...
    2023 08 26    18 58 15.2 +03 36 28   0.06715 1.0540   128.6    48.6    21.3
    ...
    2023 09 03    20 29 33.7 +22 26 37   0.05126 1.0458   134.9    43.1    20.5
    ...
    2023 09 09    22 23 44.2 +36 01 59   0.05218 1.0463   137.1    41.0    20.5
    2023 09 10    22 44 11.9 +37 23 41   0.05353 1.0469   136.9    41.1    20.6
    2023 09 11    23 04 11.5 +38 26 57   0.05518 1.0478   136.6    41.3    20.6
    ...
    2023 09 17    00 42 11.7 +39 54 36   0.06992 1.0559   134.9    42.4    21.2
    ...
    2023 09 25    01 51 47.5 +36 48 02   0.09715 1.0753   136.1    40.3    21.9
    ...
    2023 10 10    02 35 24.8 +30 45 29   0.1586  1.1348   146.8    28.8    22.8
    
    M. P. C. Staff               (C) Copyright 2023 MPC           M.P.E.C. 2023-R117
    


    Read MPEC 2023-R116 Read MPEC 2023-R118


    MPEC number:

    Enter an MPEC number in one of the following forms:

    • 1997-B01 (the full form)
    • J97B01 (the packed version of the full form)
    • B01 (the abbreviated form)